| time (UTC) | temp C | wind direction | speed KPH | gust KPH | rain 1hr cm | rain 24hr cm | rain mn cm | humidity % | barometer mb |
| 20260506155005 | 10 | 100 | 1.6 | 4.8 | 0.10 | 0.15 | 0.15 | 87 | 1012.2 |
| 20260506154007 | 10 | 172 | 1.6 | 6.4 | 0.05 | 0.13 | 0.13 | 86 | 1012.2 |
| 20260506153220 | 10 | 130 | 3.2 | 9.7 | 0.03 | 0.10 | 0.10 | 85 | 1012.1 |
| 20260506152006 | 10 | 54 | 3.2 | 6.4 | 0.00 | 0.05 | 0.05 | 84 | 1012.0 |
| 20260506151005 | 11 | 85 | 3.2 | 6.4 | 0.00 | 0.05 | 0.05 | 84 | 1012.0 |
| 20260506150004 | 11 | 6 | 3.2 | 6.4 | 0.00 | 0.05 | 0.05 | 84 | 1011.8 |
| 20260506145003 | 11 | 359 | 3.2 | 6.4 | 0.00 | 0.05 | 0.05 | 85 | 1011.9 |
| 20260506144005 | 11 | 19 | 4.8 | 6.4 | 0.03 | 0.05 | 0.05 | 86 | 1011.9 |
| 20260506143003 | 11 | 8 | 4.8 | 9.7 | 0.03 | 0.05 | 0.05 | 89 | 1011.8 |
| 20260506142005 | 11 | 349 | 3.2 | 6.4 | 0.03 | 0.05 | 0.05 | 90 | 1012.0 |
| 20260506141005 | 11 | 14 | 3.2 | 12.9 | 0.03 | 0.05 | 0.05 | 91 | 1012.1 |
| 20260506140005 | 10 | 3 | 3.2 | 6.4 | 0.03 | 0.05 | 0.05 | 91 | 1012.1 |
| 20260506135006 | 10 | 21 | 4.8 | 12.9 | 0.03 | 0.05 | 0.05 | 90 | 1012.1 |
| 20260506134005 | 10 | 7 | 4.8 | 11.3 | 0.00 | 0.03 | 0.03 | 90 | 1012.1 |
| 20260506133217 | 10 | 27 | 6.4 | 11.3 | 0.03 | 0.03 | 0.03 | 90 | 1012.1 |
| 20260506132003 | 10 | 40 | 9.7 | 17.7 | 0.03 | 0.03 | 0.03 | 89 | 1012.1 |
| 20260506131003 | 10 | 25 | 6.4 | 12.9 | 0.03 | 0.03 | 0.03 | 89 | 1012.0 |
| 20260506130004 | 10 | 39 | 8.0 | 12.9 | 0.03 | 0.03 | 0.03 | 89 | 1012.0 |
| 20260506125006 | 10 | 40 | 8.0 | 14.5 | 0.03 | 0.03 | 0.03 | 88 | 1011.9 |
| 20260506124005 | 10 | 41 | 8.0 | 12.9 | 0.03 | 0.03 | 0.03 | 87 | 1011.8 |
| 20260506123005 | 10 | 28 | 9.7 | 19.3 | 0.00 | 0.00 | 0.00 | 86 | 1011.8 |
| 20260506122004 | 10 | 43 | 8.0 | 14.5 | 0.00 | 0.00 | 0.00 | 86 | 1011.8 |
| 20260506121005 | 11 | 7 | 6.4 | 11.3 | 0.00 | 0.00 | 0.00 | 87 | 1011.8 |
| 20260506120004 | 10 | 14 | 6.4 | 12.9 | 0.00 | 0.00 | 0.00 | 89 | 1011.8 |
| 20260506115003 | 10 | 25 | 6.4 | 12.9 | 0.00 | 0.00 | 0.00 | 89 | 1011.7 |
| 20260506114005 | 10 | 35 | 8.0 | 17.7 | 0.00 | 0.00 | 0.00 | 88 | 1011.7 |
| 20260506113218 | 10 | 47 | 11.3 | 17.7 | 0.00 | 0.00 | 0.00 | 86 | 1011.7 |
| 20260506112214 | 10 | 76 | 11.3 | 17.7 | 0.00 | 0.00 | 0.00 | 85 | 1011.7 |
| 20260506111006 | 10 | 50 | 14.5 | 27.4 | 0.00 | 0.00 | 0.00 | 81 | 1011.6 |
| 20260506110005 | 11 | 72 | 12.9 | 17.7 | 0.00 | 0.00 | 0.00 | 77 | 1011.5 |
| 20260506105003 | 12 | 34 | 8.0 | 20.9 | 0.00 | 0.00 | 0.00 | 74 | 1011.5 |
| 20260506104218 | 12 | 32 | 6.4 | 12.9 | 0.00 | 0.00 | 0.00 | 71 | 1011.3 |
| 20260506103005 | 12 | 20 | 9.7 | 20.9 | 0.00 | 0.00 | 0.00 | 72 | 1011.5 |
| 20260506102005 | 12 | 26 | 9.7 | 19.3 | 0.00 | 0.00 | 0.00 | 69 | 1011.4 |
| 20260506101005 | 12 | 78 | 14.5 | 20.9 | 0.00 | 0.00 | 0.00 | 70 | 1011.3 |
| 20260506100005 | 12 | 39 | 11.3 | 20.9 | 0.00 | 0.00 | 0.00 | 70 | 1011.3 |
| 20260506095006 | 12 | 35 | 11.3 | 19.3 | 0.00 | 0.00 | 0.00 | 71 | 1011.3 |
| 20260506094004 | 12 | 1 | 6.4 | 14.5 | 0.00 | 0.00 | 0.00 | 70 | 1011.2 |
| 20260506093005 | 12 | 20 | 11.3 | 24.1 | 0.00 | 0.00 | 0.00 | 74 | 1011.3 |
| 20260506092003 | 11 | 32 | 12.9 | 24.1 | 0.00 | 0.00 | 0.00 | 75 | 1011.1 |
| 20260506091216 | 11 | 25 | 9.7 | 20.9 | 0.00 | 0.00 | 0.00 | 76 | 1011.2 |
| 20260506090006 | 11 | 41 | 9.7 | 16.1 | 0.00 | 0.00 | 0.00 | 77 | 1011.0 |
| 20260506085218 | 11 | 51 | 11.3 | 24.1 | 0.00 | 0.00 | 0.00 | 78 | 1011.0 |
| 20260506084005 | 11 | 16 | 9.7 | 19.3 | 0.00 | 0.00 | 0.00 | 78 | 1010.9 |
| 20260506083215 | 11 | 5 | 8.0 | 17.7 | 0.00 | 0.00 | 0.00 | 80 | 1010.8 |
| 20260506082007 | 10 | 48 | 8.0 | 16.1 | 0.00 | 0.00 | 0.00 | 82 | 1010.9 |
| 20260506081217 | 10 | 39 | 8.0 | 17.7 | 0.00 | 0.00 | 0.00 | 83 | 1010.9 |
| 20260506080217 | 10 | 27 | 6.4 | 19.3 | 0.00 | 0.00 | 0.00 | 86 | 1010.9 |
| 20260506073003 | 8 | 358 | 6.4 | 14.5 | 0.00 | 0.00 | 0.00 | 93 | 1011.0 |
| 20260506072003 | 8 | 17 | 8.0 | 12.9 | 0.00 | 0.00 | 0.00 | 95 | 1011.0 |
| 20260506071005 | 7 | 22 | 6.4 | 12.9 | 0.00 | 0.00 | 0.00 | 96 | 1011.0 |
| 20260506070213 | 7 | 9 | 4.8 | 11.3 | 0.00 | 0.00 | 0.00 | 96 | 1010.9 |
| 20260506062004 | 6 | 335 | 4.8 | 9.7 | 0.00 | 0.00 | 0.00 | 99 | 1010.7 |
| 20260506061003 | 6 | 238 | 3.2 | 9.7 | 0.00 | 0.00 | 0.00 | 99 | 1010.8 |
| 20260506051003 | 5 | 327 | 6.4 | 9.7 | 0.00 | 0.00 | 0.00 | 99 | 1010.7 |
| 20260506045008 | 5 | 320 | 4.8 | 9.7 | 0.00 | 0.00 | 0.00 | 99 | 1010.7 |
| 20260506044005 | 5 | 321 | 1.6 | 4.8 | 0.00 | 0.00 | 0.00 | 99 | 1010.8 |
| 20260506043005 | 5 | 338 | 3.2 | 6.4 | 0.00 | 0.00 | 0.00 | 99 | 1010.7 |
| 20260506042008 | 5 | 340 | 3.2 | 6.4 | 0.00 | 0.00 | 0.00 | 99 | 1010.8 |
| 20260506041006 | 5 | 315 | 4.8 | 6.4 | 0.00 | 0.00 | 0.00 | 99 | 1010.6 |
| 20260506040004 | 5 | 323 | 4.8 | 6.4 | 0.00 | 0.00 | 0.00 | 99 | 1010.8 |
| 20260506035007 | 5 | 316 | 3.2 | 6.4 | 0.00 | 0.00 | 0.00 | 99 | 1010.8 |
| 20260506034005 | 5 | 328 | 4.8 | 8.0 | 0.00 | 0.00 | 0.00 | 99 | 1010.9 |
| 20260506033009 | 6 | 333 | 4.8 | 8.0 | 0.00 | 0.00 | 0.00 | 99 | 1011.1 |
| 20260506032219 | 6 | 315 | 4.8 | 8.0 | 0.00 | 0.00 | 0.00 | 99 | 1011.1 |
| 20260506031003 | 6 | 333 | 3.2 | 8.0 | 0.00 | 0.00 | 0.00 | 99 | 1011.2 |
| 20260506030005 | 6 | 336 | 4.8 | 8.0 | 0.00 | 0.00 | 0.00 | 99 | 1011.3 |
| 20260506025004 | 6 | 324 | 4.8 | 6.4 | 0.00 | 0.00 | 0.00 | 99 | 1011.4 |
| 20260506024005 | 6 | 338 | 4.8 | 8.0 | 0.00 | 0.00 | 0.00 | 99 | 1011.5 |
| 20260506023218 | 6 | 338 | 6.4 | 11.3 | 0.00 | 0.00 | 0.00 | 99 | 1011.5 |
| 20260506022003 | 6 | 319 | 4.8 | 9.7 | 0.00 | 0.00 | 0.00 | 99 | 1011.6 |
| 20260506021006 | 6 | 315 | 4.8 | 11.3 | 0.00 | 0.00 | 0.00 | 99 | 1011.7 |
| 20260506020004 | 6 | 323 | 4.8 | 9.7 | 0.00 | 0.00 | 0.00 | 99 | 1011.7 |
| 20260506015005 | 7 | 318 | 4.8 | 8.0 | 0.00 | 0.00 | 0.00 | 99 | 1011.7 |
| 20260506014003 | 7 | 316 | 3.2 | 6.4 | 0.00 | 0.00 | 0.00 | 98 | 1011.7 |
| 20260506013214 | 7 | 316 | 3.2 | 8.0 | 0.00 | 0.00 | 0.00 | 98 | 1011.7 |
| 20260506012006 | 7 | 315 | 3.2 | 8.0 | 0.00 | 0.00 | 0.00 | 98 | 1011.9 |
| 20260506011006 | 7 | 313 | 3.2 | 6.4 | 0.00 | 0.00 | 0.00 | 94 | 1011.9 |
| 20260506010004 | 7 | 334 | 1.6 | 4.8 | 0.00 | 0.00 | 0.00 | 94 | 1011.9 |
| 20260506005005 | 7 | 4 | 1.6 | 6.4 | 0.00 | 0.00 | 0.00 | 94 | 1011.9 |
| 20260506004003 | 7 | 9 | 3.2 | 6.4 | 0.00 | 0.00 | 0.00 | 94 | 1012.0 |
| 20260506003005 | 7 | 338 | 4.8 | 16.1 | 0.00 | 0.00 | 0.00 | 93 | 1012.3 |
| 20260506002005 | 7 | 353 | 3.2 | 9.7 | 0.00 | 0.00 | 0.00 | 93 | 1012.2 |
| 20260506001006 | 7 | 39 | 6.4 | 9.7 | 0.00 | 0.00 | 0.00 | 93 | 1012.2 |
| 20260506000219 | 7 | 13 | 6.4 | 11.3 | 0.00 | 0.00 | 0.00 | 92 | 1012.4 |
| 20260505235219 | 7 | 24 | 6.4 | 11.3 | 0.00 | 0.00 | 0.00 | 92 | 1012.3 |
| 20260505234005 | 7 | 36 | 4.8 | 8.0 | 0.00 | 0.00 | 0.00 | 91 | 1012.3 |
| 20260505233003 | 7 | 2 | 3.2 | 9.7 | 0.00 | 0.00 | 0.00 | 91 | 1012.5 |
| 20260505232003 | 7 | 48 | 4.8 | 8.0 | 0.00 | 0.00 | 0.00 | 91 | 1012.6 |
| 20260505231005 | 7 | 22 | 8.0 | 12.9 | 0.00 | 0.00 | 0.00 | 90 | 1012.7 |
| 20260505230003 | 7 | 22 | 4.8 | 9.7 | 0.00 | 0.00 | 0.00 | 90 | 1012.7 |
| 20260505225004 | 8 | 30 | 4.8 | 11.3 | 0.00 | 0.00 | 0.00 | 90 | 1012.7 |
| 20260505224003 | 8 | 42 | 6.4 | 9.7 | 0.00 | 0.00 | 0.00 | 88 | 1012.6 |
| 20260505223005 | 8 | 34 | 6.4 | 9.7 | 0.00 | 0.00 | 0.00 | 87 | 1012.7 |
| 20260505222005 | 8 | 13 | 6.4 | 14.5 | 0.00 | 0.00 | 0.00 | 86 | 1012.8 |
| 20260505221005 | 8 | 43 | 6.4 | 9.7 | 0.00 | 0.00 | 0.00 | 85 | 1012.7 |
| 20260505220007 | 8 | 23 | 6.4 | 14.5 | 0.00 | 0.00 | 0.00 | 84 | 1012.7 |
| 20260505215004 | 8 | 33 | 6.4 | 12.9 | 0.00 | 0.00 | 0.00 | 84 | 1012.8 |
| 20260505214005 | 8 | 19 | 6.4 | 12.9 | 0.00 | 0.00 | 0.00 | 83 | 1012.8 |
| 20260505213217 | 8 | 28 | 4.8 | 11.3 | 0.00 | 0.00 | 0.00 | 83 | 1013.0 |
| 20260505212007 | 8 | 15 | 6.4 | 11.3 | 0.00 | 0.00 | 0.00 | 82 | 1013.0 |
| 20260505211006 | 8 | 42 | 6.4 | 12.9 | 0.00 | 0.00 | 0.00 | 82 | 1013.0 |
| 20260505210003 | 9 | 48 | 6.4 | 12.9 | 0.00 | 0.00 | 0.00 | 81 | 1013.0 |
| 20260505205008 | 9 | 41 | 6.4 | 11.3 | 0.00 | 0.00 | 0.00 | 80 | 1013.0 |
| 20260505204004 | 9 | 35 | 6.4 | 12.9 | 0.00 | 0.00 | 0.00 | 80 | 1013.0 |
| 20260505203217 | 9 | 43 | 6.4 | 12.9 | 0.00 | 0.00 | 0.00 | 79 | 1012.9 |
| 20260505202006 | 10 | 50 | 6.4 | 12.9 | 0.00 | 0.00 | 0.00 | 78 | 1012.8 |
| 20260505201006 | 10 | 50 | 9.7 | 14.5 | 0.00 | 0.00 | 0.00 | 77 | 1012.7 |
| 20260505200215 | 10 | 44 | 9.7 | 16.1 | 0.00 | 0.00 | 0.00 | 76 | 1012.7 |
| 20260505195005 | 10 | 47 | 9.7 | 17.7 | 0.00 | 0.00 | 0.00 | 75 | 1012.7 |
| 20260505194003 | 10 | 47 | 8.0 | 16.1 | 0.00 | 0.00 | 0.00 | 74 | 1012.5 |
| 20260505193009 | 11 | 62 | 8.0 | 16.1 | 0.00 | 0.00 | 0.00 | 74 | 1012.5 |
| 20260505192006 | 11 | 43 | 4.8 | 11.3 | 0.00 | 0.00 | 0.00 | 73 | 1012.4 |
| 20260505191003 | 11 | 65 | 6.4 | 11.3 | 0.00 | 0.00 | 0.00 | 71 | 1012.2 |
| 20260505190216 | 11 | 81 | 6.4 | 11.3 | 0.00 | 0.00 | 0.00 | 71 | 1012.3 |
| 20260505185006 | 11 | 84 | 4.8 | 9.7 | 0.00 | 0.00 | 0.00 | 70 | 1012.3 |
| 20260505184005 | 12 | 68 | 6.4 | 11.3 | 0.00 | 0.00 | 0.00 | 69 | 1012.2 |
| 20260505183006 | 12 | 89 | 8.0 | 17.7 | 0.00 | 0.00 | 0.00 | 67 | 1012.3 |
| 20260505182004 | 12 | 56 | 11.3 | 20.9 | 0.00 | 0.00 | 0.00 | 61 | 1012.2 |
| 20260505181004 | 13 | 81 | 8.0 | 11.3 | 0.00 | 0.00 | 0.00 | 61 | 1012.2 |
| 20260505180006 | 14 | 66 | 8.0 | 12.9 | 0.00 | 0.00 | 0.00 | 60 | 1012.2 |
| 20260505175008 | 14 | 84 | 6.4 | 12.9 | 0.00 | 0.00 | 0.00 | 61 | 1012.1 |
| 20260505174003 | 14 | 74 | 4.8 | 11.3 | 0.00 | 0.00 | 0.00 | 65 | 1012.1 |
| 20260505173003 | 13 | 106 | 4.8 | 9.7 | 0.00 | 0.00 | 0.00 | 63 | 1012.1 |
| 20260505172006 | 13 | 130 | 4.8 | 11.3 | 0.00 | 0.00 | 0.00 | 63 | 1012.2 |
| 20260505171003 | 13 | 64 | 4.8 | 9.7 | 0.00 | 0.00 | 0.00 | 61 | 1012.3 |
| 20260505170006 | 14 | 127 | 4.8 | 9.7 | 0.00 | 0.00 | 0.00 | 61 | 1012.3 |
| 20260505165213 | 14 | 117 | 4.8 | 12.9 | 0.00 | 0.00 | 0.00 | 60 | 1012.4 |
| 20260505164005 | 15 | 103 | 4.8 | 12.9 | 0.00 | 0.00 | 0.00 | 58 | 1012.3 |
| 20260505163220 | 15 | 97 | 6.4 | 17.7 | 0.00 | 0.00 | 0.00 | 57 | 1012.3 |
| 20260505162216 | 15 | 92 | 6.4 | 16.1 | 0.00 | 0.00 | 0.00 | 58 | 1012.3 |
| 20260505161006 | 15 | 144 | 6.4 | 12.9 | 0.00 | 0.00 | 0.00 | 55 | 1012.2 |